Palembang, Indonesia

1:10 AM WIB on August 30, 2016 (GMT +0700)
Sultan M Badaruddin Ii

Weather History for WIPP - January, 2013

Change the Weather History Date:

Thursday, January 3, 2013

  Actual Average Record
Temperature  
Mean Temperature 84 °F -  
Max Temperature 91 °F - - ()
Min Temperature 76 °F - - ()
Cooling Degree Days 18    
Growing Degree Days 34 (Base 50)    
Moisture  
Dew Point 76 °F    
Average Humidity 81    
Maximum Humidity 96    
Minimum Humidity 53    
Precipitation  
Precipitation 0.35 in - - ()
Sea Level Pressure  
Sea Level Pressure 29.80 in    
Wind  
Wind Speed 3 mph ()    
Max Wind Speed 12 mph    
Max Gust Speed -    
Visibility 5.3 miles    
Events      
T = Trace of Precipitation, MM = Missing Value Source: Averaged Metar Reports

Daily Weather History Graph

Daily Weather History Graph

Search for Another Location

Airport or City:

Trip Planner

Search our weather history database for the weather conditions in past years. The results will help you decide how hot, cold, wet, or windy it might be!

Date:

Astronomy

Jan. 03, 2013 Rise Set
Actual Time 5:57 AM WIB 6:14 PM WIB
Civil Twilight 5:34 AM WIB 6:36 PM WIB
Nautical Twilight 5:08 AM WIB 7:03 PM WIB
Astronomical Twilight 4:41 AM WIB 7:29 PM WIB
Moon 10:41 PM WIB (1/3) 10:17 AM WIB (1/3)
Length of Visible Light 13h 02m
Length of Day
12h 17m
Waning Gibbous, 70% of the Moon is Illuminated
Jan 3
Waning Gibbous
Jan 5
Last Quarter
Jan 12
New
Jan 19
First Quarter
Jan 27
Full

Hourly Weather History & Observations

Time (WIB) Temp. Heat Index Dew Point Humidity Pressure Visibility Wind Dir Wind Speed Gust Speed Precip Events Conditions
1:00 AM 78 °F - 76 °F 94% 29.83 in 2 mi Calm Calm - -   Mist
4:00 AM 77 °F - 76 °F 96% 29.80 in 2 mi Calm Calm - -   Mist
5:00 AM 77.0 °F - 75.2 °F 94% 29.80 in 1.2 mi Calm Calm - N/A   Partly Cloudy
6:00 AM 77.0 °F - 75.2 °F 94% 29.80 in 1.9 mi WNW 4.6 mph - N/A   Partly Cloudy
6:30 AM 77.0 °F - 75.2 °F 94% 29.83 in 1.9 mi West 3.5 mph - N/A   Partly Cloudy
7:00 AM 76 °F - 75 °F 94% 29.84 in 2 mi Calm Calm - -   Haze
7:00 AM 77.0 °F - 75.2 °F 94% 29.83 in 2.5 mi Calm Calm - N/A   Haze
7:30 AM 77.0 °F - 75.2 °F 94% 29.86 in 2.5 mi Calm Calm - N/A   Haze
8:00 AM 78.8 °F - 75.2 °F 89% 29.86 in 5.0 mi WNW 4.6 mph - N/A   Partly Cloudy
8:30 AM 80.6 °F 86.2 °F 75.2 °F 84% 29.86 in 6.2 mi NW 4.6 mph - N/A   Partly Cloudy
9:00 AM 82.4 °F 89.5 °F 75.2 °F 79% 29.86 in 6.2 mi NW 5.8 mph - N/A   Partly Cloudy
10:00 AM 84 °F - 76 °F 70% 29.87 in 6 mi West 10.4 mph - -   Partly Cloudy
10:00 AM 84.2 °F 92.3 °F 75.2 °F 74% 29.86 in 6.2 mi West 10.4 mph - N/A   Scattered Clouds
10:30 AM 84.2 °F 92.3 °F 75.2 °F 74% 29.86 in 6.2 mi NW 4.6 mph - N/A   Scattered Clouds
11:00 AM 86.0 °F 96.9 °F 77.0 °F 74% 29.83 in 6.2 mi WNW 4.6 mph - N/A   Scattered Clouds
11:30 AM 87.8 °F 97.6 °F 75.2 °F 66% 29.83 in 6.2 mi West 6.9 mph - N/A   Scattered Clouds
12:30 PM 89.6 °F 99.8 °F 75.2 °F 62% 29.80 in 6.2 mi NW 4.6 mph - N/A   Scattered Clouds
1:00 PM 89 °F - 76 °F 57% 29.79 in 6 mi NW 6.9 mph - -   Partly Cloudy
1:00 PM 89.6 °F 99.8 °F 75.2 °F 62% 29.77 in 6.2 mi NW 6.9 mph - N/A   Scattered Clouds
1:30 PM 91.4 °F 105.1 °F 77.0 °F 63% 29.77 in 6.2 mi WNW 5.8 mph - N/A   Scattered Clouds
2:00 PM 89.6 °F 99.8 °F 75.2 °F 62% 29.74 in 6.2 mi NNW 5.8 mph - N/A   Mostly Cloudy
3:00 PM 91.4 °F 105.1 °F 77.0 °F 63% 29.74 in 6.2 mi WNW 5.8 mph - N/A   Mostly Cloudy
3:30 PM 91.4 °F 102.5 °F 75.2 °F 59% 29.71 in 6.2 mi WNW 5.8 mph - N/A   Scattered Clouds
4:00 PM 91 °F - 76 °F 53% 29.73 in 6 mi NW 6.9 mph - -   Mostly Cloudy
4:00 PM 91.4 °F 105.1 °F 77.0 °F 63% 29.71 in 6.2 mi NW 6.9 mph - N/A   Mostly Cloudy
4:30 PM 84.2 °F 94.1 °F 77.0 °F 79% 29.74 in 6.2 mi NNE 9.2 mph - N/A   Scattered Clouds
5:00 PM 84.2 °F 96.1 °F 78.8 °F 84% 29.74 in 6.2 mi North 11.5 mph - N/A   Scattered Clouds
6:00 PM 82.4 °F 90.9 °F 77.0 °F 84% 29.74 in 6.2 mi North 5.8 mph - N/A   Scattered Clouds
7:00 PM 81 °F - 75 °F 78% 29.78 in 6 mi ENE 4.6 mph - -   Partly Cloudy
7:00 PM 80.6 °F 86.2 °F 75.2 °F 84% 29.77 in 6.2 mi North 5.8 mph - N/A   Scattered Clouds
7:30 PM 78.8 °F - 75.2 °F 89% 29.77 in 6.2 mi Calm Calm - N/A   Scattered Clouds
8:00 PM 80.6 °F 87.1 °F 77.0 °F 89% 29.77 in 6.2 mi NW 3.5 mph - N/A   Partly Cloudy
8:30 PM 78.8 °F - 77.0 °F 94% 29.80 in 6.2 mi Calm Calm - N/A   Partly Cloudy
9:00 PM 78.8 °F - 77.0 °F 94% 29.80 in 6.2 mi Calm Calm - N/A   Partly Cloudy
9:30 PM 78.8 °F - 77.0 °F 94% 29.80 in 6.2 mi Calm Calm - N/A   Partly Cloudy
10:00 PM 79 °F - 77 °F 92% 29.81 in 6 mi Calm Calm - -   Scattered Clouds
10:00 PM 78.8 °F - 77.0 °F 94% 29.80 in 6.2 mi Calm Calm - N/A   Partly Cloudy
10:30 PM 78.8 °F - 77.0 °F 94% 29.83 in 6.2 mi Calm Calm - N/A   Partly Cloudy
11:00 PM 78.8 °F - 77.0 °F 94% 29.83 in 6.2 mi WNW 11.5 mph - N/A   Partly Cloudy